Messwerte Puerto Plata

Temperatur

Temperatur
°C
1614150000 3.00 3.00
1614153600 4.00 4.00
1614157200 5.00 5.00 22
1614160800 6.00 6.00
1614164400 7.00 7.00 21
1614168000 8.00 8.00 21
1614171600 9.00 9.00 23
1614175200 10.00 10.00 27
1614178800 11.00 11.00 28
1614182400 12.00 12.00 28
1614186000 13.00 13.00 29
1614189600 14.00 14.00 29
1614193200 15.00 15.00 30
1614196800 16.00 16.00 29
1614200400 17.00 17.00 28
1614204000 18.00 18.00 28
1614207600 19.00 19.00 25
1614211200 20.00 20.00 24
1614214800 21.00 21.00 23
1614218400 22.00 22.00 23
1614222000 23.00 23.00 23
1614225600 0.00 0.00
1614229200 1.00 1.00
1614232800 2.00 2.00 22

Aktuellste Messwerte

Wettercharakter
Wetter: meist klar
Temperatur
22 °C
Feuchtigkeit
94 %
Wind
10 km/hWindrichtung: Südost
Luftdruck
1018 hPa
Messzeit: 25. Februar 2021, 2.00Datenquelle: METAR

Weitere Messstationen in der Nähe

Messstation Temperatur Entfernung
Santiago de los Caballeros 19 °C 37 km
Boca Chica 19 °C 173 km
Port-au-Prince 23 °C 226 km
La Romana - 229 km
Punta Cana - 264 km
Providenciales - 287 km
Aquadilla - 385 km

Wind

Windrichtung Böen Mittelwind
° km/h km/h
1614150000 3.00 2.00 - 3.00
1614153600 4.00 3.00 - 4.00
1614157200 5.00 4.00 - 5.00 0
1614160800 6.00 5.00 - 6.00
1614164400 7.00 6.00 - 7.00 0
1614168000 8.00 7.00 - 8.00 0
1614171600 9.00 8.00 - 9.00 100° 15
1614175200 10.00 9.00 - 10.00 120° 20
1614178800 11.00 10.00 - 11.00 120° 20
1614182400 12.00 11.00 - 12.00 70° 20
1614186000 13.00 12.00 - 13.00 80° 10
1614189600 14.00 13.00 - 14.00 110° 20
1614193200 15.00 14.00 - 15.00 60° 25
1614196800 16.00 15.00 - 16.00 80° 20
1614200400 17.00 16.00 - 17.00 110° 25
1614204000 18.00 17.00 - 18.00 90° 25
1614207600 19.00 18.00 - 19.00 90° 15
1614211200 20.00 19.00 - 20.00 100° 20
1614214800 21.00 20.00 - 21.00 120° 10
1614218400 22.00 21.00 - 22.00 130° 10
1614222000 23.00 22.00 - 23.00 130° 15
1614225600 0.00 23.00 - 0.00
1614229200 1.00 0.00 - 1.00
1614232800 2.00 1.00 - 2.00 130° 10

Ihre Wetterstation

Fehlt Ihre Wetterstation auf unserem Portal?

Schreiben Sie an network@meteonews.ch

Klima

Wann ist es am wärmsten? Wann regnet es am wenigsten? Unsere Klimadaten geben Auskunft.